Regional Weather Roundup
Issued by NWS

Home | Current Version | Previous Version | Graphics & Text | Print | Product List | Glossary On
Versions: 1 2 3 4 5 6 7 8 9 10 11 12 13 14 15 16 17 18 19 20 21 22 23 24 25 26 27 28 29 30 31 32 33 34 35 36 37 38 39 40 41 42 43 44 45 46 47 48 49 50
000
ASUS43 KOAX 230910
RWRNE

WEATHER ROUNDUP FOR NEBRASKA
NATIONAL WEATHER SERVICE OMAHA NE
400 AM CDT SAT MAY 23 2015

NOTES: SATELLITE DATA IS BEING USED TO AUGMENT CLOUD COVER ABOVE
       12000 FEET.
       "FAIR" INDICATES FEW OR NO CLOUDS BELOW 12,000 FEET WITH NO
       SIGNIFICANT WEATHER AND/OR OBSTRUCTIONS TO VISIBILITY.

  * THESE STATIONS DO NOT REPORT WEATHER SUCH AS RAIN...SNOW OR FOG.

NEZ001>004-019>022-054>056-231000-
NEBRASKA PANHANDLE

CITY           SKY/WX    TMP DP  RH WIND       PRES   REMARKS
SCOTTSBLUFF    CLOUDY    46  45  96 E6        30.05F
ALLIANCE       CLOUDY    46  46 100 SE7       30.05F FOG
CHADRON        CLOUDY    48  44  86 S5        30.07R
KIMBALL          N/A    N/A N/A N/A MISG        N/A
SIDNEY         FOG       47  47 100 SE7       30.05S VSB 1/4
$$

NEZ057>060-069>072-079>082-231000-
SOUTHWEST NEBRASKA

CITY           SKY/WX    TMP DP  RH WIND       PRES   REMARKS
NORTH PLATTE   LGT RAIN  53  51  93 SE9       30.07F
IMPERIAL       LGT RAIN  52  51  97 SE17      30.04F
LEXINGTON      CLOUDY    54  53  97 SE9       30.10F FOG
MCCOOK         CLOUDY    54  53  97 SW5       30.11R THUNDER FOG
OGALLALA       CLOUDY    51  51  99 SE6       30.05F
$$

NEZ005>010-023>029-035>040-094-231000-
NORTH CENTRAL NEBRASKA

CITY           SKY/WX    TMP DP  RH WIND       PRES   REMARKS
VALENTINE      LGT RAIN  49  47  93 E6        30.11S FOG
AINSWORTH      RAIN      50  50 100 E7        30.11S
BROKEN BOW     CLOUDY    53  52  96 S12       30.11R FOG
O`NEILL        CLOUDY    52  50  93 SE7       30.15S
ORD            CLOUDY    52  50  93 S6        30.12S
THEDFORD       FOG       50  49  98 SE5       30.09F VSB 1
$$

NEZ041-046>049-061>064-073>077-083>087-231000-
SOUTH CENTRAL NEBRASKA

CITY           SKY/WX    TMP DP  RH WIND       PRES   REMARKS
GRAND ISLAND   CLOUDY    53  49  86 SE8       30.15S
AURORA         CLOUDY    53  49  83 SE8       30.15F
HASTINGS       LGT RAIN  54  50  86 S9        30.14S
HEBRON         CLOUDY    55  49  80 S9        30.17R
HOLDREGE       FOG       53  51  95 SE10      30.10F VSB 1
KEARNEY *      CLOUDY    52  50  93 SE12      30.13F
YORK           CLOUDY    55  48  76 S12       30.17S
$$

NEZ011>018-030>034-042>045-231000-
NORTHEAST NEBRASKA

CITY           SKY/WX    TMP DP  RH WIND       PRES   REMARKS
NORFOLK        CLOUDY    54  49  83 SE5       30.17S
ALBION         CLOUDY    53  47  82 SE6       30.16S
BLAIR          CLOUDY    58  48  68 S6        30.20R
COLUMBUS *     CLOUDY    55  43  62 S6        30.21S
FREMONT        CLOUDY    58  49  72 SE5       30.19S
TEKAMAH        CLOUDY    57  51  80 SE8       30.19S
WAYNE          CLOUDY    54  50  86 SE5       30.19R
$$

NEZ050>053-065>068-078-088>093-231000-
SOUTHEAST NEBRASKA

CITY           SKY/WX    TMP DP  RH WIND       PRES   REMARKS
LINCOLN        CLOUDY    56  50  80 S6        30.19F
OMAHA EPPLEY   CLOUDY    59  50  72 SE8       30.19F
BEATRICE       CLOUDY    57  49  75 S6        30.17S
FALLS CITY     CLOUDY    57  51  80 SE3       30.18F
NEBRASKA CITY  CLOUDY    56  49  76 CALM      30.19S
PLATTSMOUTH    MOCLDY    56  49  78 SE3       30.20S
$$

NEZ044-045-051>053-067-231000-
OMAHA AREA

CITY           SKY/WX    TMP DP  RH WIND       PRES   REMARKS
OMAHA EPPLEY   CLOUDY    59  50  72 SE8       30.19F
BLAIR          CLOUDY    58  48  68 S6        30.20R
FREMONT        CLOUDY    58  49  72 SE5       30.19S
MILLARD        CLOUDY    58  51  77 SE5       30.19S
OFFUTT AFB     MOCLDY    56  51  81 SE2       30.19S
PLATTSMOUTH    MOCLDY    56  49  78 SE3       30.20S
WAHOO          CLOUDY    57  49  76 SE7       30.19S
$$


USA.gov is the U.S. government's official web portal to all federal, state and local government web resources and services.